Volver al catálogo

SL-12 R/B

AUX MOTOR

ActivoHEO
NORAD 15266·ROCKET BODY·🇷🇺 Russia

Lanzado Sep 4, 1984 desde Baikonur Cosmodrome

Loading…

Próximos Pases (próximas 24 horas)

TLE

ActualizadoSource: Space-Track

Época: Sep 13, 2026, 06:32 UTC

1 15266U 84095H   26256.27228005  .00001491  00000-0  60852-3 0  9992
2 15266  52.0162 261.7668 5391938 298.6579  17.7984  4.92682493698925

Sigue SL-12 R/B en tiempo real con AllMySat

Download on the App Store